Skip Page Navigation
NASA JPL Caltech
NASA Logo - Jet Propulsion Laboratory + View the NASA Portal
+ Center for Near-Earth Object Studies
JPL Home Earth Solar System Stars & Galaxies Technology
JPL Solar System Dynamics
BODIES ORBITS EPHEMERIDES TOOLS PHYSICAL DATA DISCOVERY FAQ SITE MAP
JPL Small-Body Database Browser
Search: [ help ]  
70212 (1999 RA38)
Classification: Main-belt Asteroid          SPK-ID: 2070212
Ephemeris | Orbit Diagram | Orbital Elements | Mission Design | Physical Parameters | Discovery Circumstances | Close-Approach Data ]

[ show orbit diagram ]
Orbital Elements at Epoch 2459200.5 (2020-Dec-17.0) TDB
Reference: JPL 24 (heliocentric ecliptic J2000)
 Element Value Uncertainty (1-sigma)   Units 
e .1441170102278029 3.8658e-08  
a 2.407534118968384 7.5076e-09 au
q 2.060567499721233 9.3586e-08 au
i 3.107727509628184 4.8776e-06 deg
node 38.75941968733252 5.4614e-05 deg
peri 30.51767765024206 5.6976e-05 deg
M 200.3246611115662 1.5907e-05 deg
tp 2459805.690982765254
(2022-Aug-14.19098277)
6.1624e-05 TDB
period 1364.448356973381
3.74
6.3823e-06
1.747e-08
d
yr
n .263842891641976 1.2341e-09 deg/d
Q 2.754500738215535 8.5896e-09 au
  Orbit Determination Parameters
   # obs. used (total)      1697  
   data-arc span      13059 days (35.75 yr)  
   first obs. used      1984-09-21  
   last obs. used      2020-06-23  
   planetary ephem.      DE441  
   SB-pert. ephem.      SB441-N16  
   condition code      0  
   norm. resid. RMS      .50206  
   source      ORB  
   producer      Otto Matic  
   solution date      2021-Apr-13 12:48:11  

Additional Information
 Earth MOID = 1.07486 au 
 Jupiter MOID = 2.51741 au 
 T_jup = 3.506 
[ hide covariance matrix ]
Orbital Elements at Epoch 2456695.5 (2014-Feb-07.0) TDB
Reference: JPL 24 (heliocentric ecliptic J2000)
 Element Value Uncertainty (1-sigma)   Units 
e .1435065744053068 3.8395e-08  
q 2.062283179172377 9.2693e-08 au
tp 2457078.101048892766
(2015-Feb-24.60104889)
5.7184e-05 TDB
node 38.80285564345263 5.4629e-05 deg
peri 30.75632734033228 5.7017e-05 deg
i 3.107550131346213 4.8753e-06 deg
  Orbit Determination Parameters
   # obs. used (total)      1697  
   data-arc span      13059 days (35.75 yr)  
   first obs. used      1984-09-21  
   last obs. used      2020-06-23  
   planetary ephem.      DE441  
   SB-pert. ephem.      SB441-N16  
   condition code      0  
   norm. resid. RMS      .50206  
   source      ORB  
   producer      Otto Matic  
   solution date      2021-Apr-13 12:48:11  

Additional Information
 Jupiter MOID = 2.51741 au 
 T_jup = 3.506 
Orbit Covariance (6×6)
  e q tp node peri i
e 1.474177814375773E-15 -3.550227314884691E-15 -1.231312491998787E-12 7.694738694807898E-15 -3.751686737649076E-13 -4.885109265749359E-16
q -3.550227314884691E-15 8.591924342947467E-15 3.059591733082908E-12 -1.907757722305547E-14 9.258057828023172E-13 1.175335166460268E-15
tp -1.231312491998787E-12 3.059591733082908E-12 3.270057968935674E-9 -1.105187342225419E-11 9.37749331126471E-10 -1.674433611282924E-13
node 7.694738694807898E-15 -1.907757722305547E-14 -1.105187342225419E-11 2.98435493973662E-9 -2.98267800609395E-9 -5.769557295442235E-11
peri -3.751686737649076E-13 9.258057828023172E-13 9.37749331126471E-10 -2.98267800609395E-9 3.250927687240881E-9 5.756487515453666E-11
i -4.885109265749359E-16 1.175335166460268E-15 -1.674433611282924E-13 -5.769557295442235E-11 5.756487515453666E-11 2.376849010013511E-11

Ephemeris | Orbit Diagram | Orbital Elements | Mission Design | Physical Parameters | Discovery Circumstances | Close-Approach Data ]

Physical Parameter Table
Parameter Symbol Value Units Sigma Reference Notes
absolute magnitude H 14.85   n/a E2021B10  
diameter diameter 5.871 km 0.168 urn:nasa:pds:neowise_diameters_albedos::2.0[mainbelt] (http://adsabs.harvard.edu/abs/2011ApJ...741...68M)  
geometric albedo albedo 0.074   0.004 urn:nasa:pds:neowise_diameters_albedos::2.0[mainbelt] (http://adsabs.harvard.edu/abs/2011ApJ...741...68M)  

70212 (1999 RA38)          Discovered 1999-Sep-12 by Korlevic, K. at Visnjan
Reference: 20031109/Numbers.arcLast Updated: 2004-04-19

[ show close-approach data ]
Alternate Designations
 1999 RA38 = 1984 SJ8 
Ephemeris | Orbit Diagram | Orbital Elements | Mission Design | Physical Parameters | Discovery Circumstances | Close-Approach Data ]
ABOUT SSD CREDITS/AWARDS PRIVACY/COPYRIGHT GLOSSARY LINKS
FirstGov 2021-May-07 13:32 UT
(server date/time)  
NASA Home Page
Site Manager:   Ryan S. Park
Webmaster  Alan B. Chamberlin